Regional Weather Roundup
Issued by NWS

Home | Current Version | Previous Version | Text Only | Print | Product List | Glossary Off
Versions: 1 2 3 4 5 6 7 8 9 10 11 12 13 14 15 16 17 18 19 20 21 22 23 24 25 26 27 28 29 30 31 32 33 34 35 36 37 38 39 40 41 42 43 44 45 46 47 48 49 50

780
ASUS43 KBIS 201302
RWRND

NORTH DAKOTA REGIONAL WEATHER ROUNDUP
NATIONAL WEATHER SERVICE BISMARCK ND
800 AM CDT FRI APR 20 2018

NOTE: "FAIR" INDICATES FEW OR NO CLOUDS BELOW 12,000 FEET WITH NO
SIGNIFICANT WEATHER AND/OR OBSTRUCTIONS TO VISIBILITY.


NDZ001>003-009>011-017-201400-
NORTHWEST NORTH DAKOTA

CITY           SKY/WX    TMP DP  RH WIND       PRES   REMARKS
WILLISTON      MOCLDY    36  31  82 E7        30.23S
MINOT          CLOUDY    34  30  85 CALM      30.30R
$$

NDZ018>021-031>035-040>046-201400-
SOUTHWEST NORTH DAKOTA

CITY           SKY/WX    TMP DP  RH WIND       PRES   REMARKS
BISMARCK       MOSUNNY   32  25  75 NE7       30.33R
DICKINSON      PTSUNNY   33  28  81 S12       30.20R
GARRISON         N/A     32  27  81 E8        30.29R
HETTINGER ARPT CLOUDY    31  27  85 E9        30.22R
$$

NDZ004>008-012>016-024-026-027-054-201400-
NORTHEAST NORTH DAKOTA

CITY           SKY/WX    TMP DP  RH WIND       PRES   REMARKS
GRAND FORKS    FAIR      35  32  88 SE5       30.40R
GRND FRKS AFB  FAIR      36  32  85 CALM      30.39R
DEVILS LAKE    FAIR      32  30  92 SE3       30.38R
$$

NDZ022-023-025-028>030-036>039-047>053-201400-
SOUTHEAST NORTH DAKOTA

CITY           SKY/WX    TMP DP  RH WIND       PRES   REMARKS
FARGO          FAIR      37  32  82 S7        30.42S
JAMESTOWN      SUNNY     34  30  85 S6        30.37R
$$





USA.gov is the U.S. government's official web portal to all federal, state and local government web resources and services.